This is the latest recevied weather packets stored in our database for station/object 7L2IWN-13. If no packets are shown the sender has not sent any weather packets the latest 10 day(s).
| Time | Temp. | Humidity | Pressure | Rain* | Wind** | Luminosity | Snow |
|---|---|---|---|---|---|---|---|
| 1777412061 | 13.33° C | 97% | 1009.6 hPa | 0 mm | - | - | - |
| 1777410620 | 13.33° C | 98% | 1009.6 hPa | 0 mm | - | - | - |
| 1777409181 | 13.33° C | 96% | 1009.3 hPa | 0 mm | - | - | - |
| 1777407740 | 12.78° C | 96% | 1009 hPa | 0 mm | - | - | - |
| 1777407019 | 12.78° C | 96% | 1008.8 hPa | 0 mm | - | - | - |
| 1777404860 | 12.78° C | 95% | 1008.5 hPa | 0 mm | - | - | - |
| 1777404140 | 12.78° C | 95% | 1008.7 hPa | 0 mm | - | - | - |
| 1777403419 | 12.78° C | 96% | 1008.6 hPa | 0 mm | - | - | - |
| 1777396942 | 12.78° C | 94% | 1008 hPa | 0 mm | - | - | - |
| 1777396221 | 12.78° C | 94% | 1007.8 hPa | 0 mm | - | - | - |
| 1777395501 | 12.78° C | 94% | 1008.2 hPa | 0 mm | - | - | - |
| 1777394781 | 12.78° C | 95% | 1008.4 hPa | 0 mm | - | - | - |
| 1777394062 | 13.33° C | 91% | 1008.2 hPa | 0 mm | - | - | - |
| 1777390462 | 12.78° C | 94% | 1008.6 hPa | 0 mm | - | - | - |
| 1777389742 | 13.33° C | 92% | 1008.4 hPa | 0 mm | - | - | - |
| 1777389021 | 12.78° C | 95% | 1008.5 hPa | 0 mm | - | - | - |
| 1777388301 | 12.78° C | 94% | 1008.3 hPa | 0 mm | - | - | - |
| 1777387582 | 12.78° C | 94% | 1008.3 hPa | 0 mm | - | - | - |
| 1777386141 | 13.33° C | 96% | 1008.5 hPa | 0 mm | - | - | - |
| 1777385421 | 13.89° C | 93% | 1008.6 hPa | 0 mm | - | - | - |
| 1777383982 | 13.89° C | 93% | 1007.9 hPa | 0 mm | - | - | - |
| 1777383261 | 13.89° C | 92% | 1008.2 hPa | 0 mm | - | - | - |
| 1777382541 | 14.44° C | 89% | 1008.2 hPa | 0 mm | - | - | - |
| 1777381821 | 15° C | 88% | 1008.2 hPa | 0 mm | - | - | - |
| 1777378221 | 15.56° C | 92% | 1008 hPa | 0 mm | - | - | - |
* Rain latest hour (hover to see other rain measurements)
** Current wind speed in m/s (hover to see current wind gust speed)